• In Österreich
  • Länderverzeichnis
  • Für 7 Tage
  • Wassertemperatur
  • Satellitenkarten
  • Wetterkarte
  • News
  • Widgets
  • user-avatar
    Anmelden

    Stündliche Wetter Chikosh-Horonda

    Heute, 16 August, Donnerstag

    Zeit Temperatur Niederschläge Wind Luftdruck Luftfeuchtigkeit
    00:00 +23°C° 0 mm 2 m/S 752 mmHg 94%
    01:00 +23°C° 0 mm 1 m/S 751 mmHg 89%
    02:00 +23°C° 0 mm 1 m/S 752 mmHg 87%
    03:00 +23°C° 0 mm 1 m/S 751 mmHg 89%
    04:00 +23°C° 0 mm 1 m/S 751 mmHg 90%
    05:00 +22°C° 0 mm 1 m/S 751 mmHg 92%
    06:00 +22°C° 0 mm 1 m/S 751 mmHg 93%
    07:00 +22°C° 0 mm 1 m/S 752 mmHg 91%
    08:00 +23°C° 0 mm 1 m/S 752 mmHg 88%
    09:00 +25°C° 0 mm 2 m/S 752 mmHg 82%
    10:00 +26°C° 0 mm 4 m/S 753 mmHg 76%
    11:00 +26°C° 0 mm 4 m/S 753 mmHg 75%
    12:00 +26°C° 0 mm 4 m/S 752 mmHg 77%
    13:00 +27°C° 0 mm 4 m/S 752 mmHg 71%
    14:00 +28°C° 0 mm 3 m/S 752 mmHg 65%
    15:00 +28°C° 0 mm 3 m/S 751 mmHg 70%
    16:00 +28°C° 0 mm 3 m/S 751 mmHg 69%
    17:00 +29°C° 0 mm 2 m/S 751 mmHg 64%
    18:00 +28°C° 0 mm 2 m/S 751 mmHg 67%
    19:00 +27°C° 0 mm 1 m/S 751 mmHg 77%
    20:00 +26°C° 0 mm 1 m/S 751 mmHg 81%
    21:00 +25°C° 0 mm 2 m/S 751 mmHg 87%
    22:00 +25°C° 0 mm 2 m/S 751 mmHg 86%
    23:00 +24°C° 0 mm 2 m/S 751 mmHg 87%

    Morgen, 17 August, Freitag

    Zeit Temperatur Niederschläge Wind Luftdruck Luftfeuchtigkeit
    00:00 +23°C° 0 mm 2 m/S 751 mmHg 89%
    01:00 +21°C° 0 mm 2 m/S 751 mmHg 90%
    02:00 +21°C° 0 mm 2 m/S 751 mmHg 89%
    03:00 +22°C° 0 mm 1 m/S 751 mmHg 87%
    04:00 +21°C° 0 mm 1 m/S 751 mmHg 87%
    05:00 +21°C° 0 mm 1 m/S 751 mmHg 88%
    06:00 +21°C° 0 mm 1 m/S 751 mmHg 89%
    07:00 +21°C° 0 mm 2 m/S 751 mmHg 88%
    08:00 +24°C° 0 mm 2 m/S 751 mmHg 85%
    09:00 +26°C° 0 mm 3 m/S 752 mmHg 77%
    10:00 +27°C° 0 mm 2 m/S 752 mmHg 75%
    11:00 +28°C° 0 mm 2 m/S 752 mmHg 74%
    12:00 +29°C° 0 mm 1 m/S 751 mmHg 71%
    13:00 +30°C° 0 mm 2 m/S 751 mmHg 70%
    14:00 +30°C° 0 mm 1 m/S 750 mmHg 65%
    15:00 +31°C° 0 mm 1 m/S 750 mmHg 63%
    16:00 +27°C° 1,1 mm 9 m/S 751 mmHg 73%
    17:00 +24°C° 10,1 mm 3 m/S 750 mmHg 77%
    18:00 +25°C° 0 mm 2 m/S 750 mmHg 81%
    19:00 +25°C° 0 mm 1 m/S 750 mmHg 86%
    20:00 +25°C° 0 mm 1 m/S 750 mmHg 80%
    21:00 +23°C° 0 mm 0 m/S 751 mmHg 79%
    22:00 +24°C° 0 mm 1 m/S 751 mmHg 81%
    23:00 +24°C° 0 mm 1 m/S 751 mmHg 82%

    übermorgen, 18 August, Samstag

    Zeit Temperatur Niederschläge Wind Luftdruck Luftfeuchtigkeit
    00:00 +23°C° 0 mm 1 m/S 751 mmHg 84%
    01:00 +23°C° 0 mm 2 m/S 751 mmHg 88%
    02:00 +21°C° 0 mm 2 m/S 751 mmHg 94%
    03:00 +22°C° 0 mm 1 m/S 751 mmHg 93%
    04:00 +22°C° 0 mm 1 m/S 751 mmHg 92%
    05:00 +22°C° 0 mm 1 m/S 751 mmHg 92%
    06:00 +21°C° 0 mm 1 m/S 751 mmHg 93%
    07:00 +22°C° 0 mm 1 m/S 752 mmHg 94%
    08:00 +23°C° 0 mm 1 m/S 752 mmHg 93%
    09:00 +25°C° 0 mm 2 m/S 752 mmHg 88%
    10:00 +26°C° 0 mm 2 m/S 752 mmHg 87%
    11:00 +27°C° 0 mm 2 m/S 752 mmHg 86%
    12:00 +28°C° 0 mm 2 m/S 752 mmHg 83%
    13:00 +29°C° 0 mm 2 m/S 752 mmHg 79%
    14:00 +30°C° 0 mm 1 m/S 751 mmHg 75%
    15:00 +30°C° 0 mm 1 m/S 751 mmHg 72%
    16:00 +30°C° 0 mm 1 m/S 751 mmHg 71%
    17:00 +28°C° 0,2 mm 5 m/S 751 mmHg 77%
    18:00 +27°C° 1,2 mm 1 m/S 751 mmHg 74%
    19:00 +27°C° 0 mm 1 m/S 751 mmHg 85%
    20:00 +26°C° 0 mm 1 m/S 751 mmHg 89%
    21:00 +26°C° 0 mm 1 m/S 752 mmHg 88%
    22:00 +25°C° 0 mm 1 m/S 752 mmHg 94%
    23:00 +25°C° 0 mm 1 m/S 752 mmHg 96%

    19 August, Sonntag

    Zeit Temperatur Niederschläge Wind Luftdruck Luftfeuchtigkeit
    00:00 +25°C° 0 mm 1 m/S 753 mmHg 96%
    01:00 +24°C° 0 mm 1 m/S 752 mmHg 96%
    02:00 +24°C° 0 mm 1 m/S 753 mmHg 95%
    03:00 +24°C° 0 mm 1 m/S 752 mmHg 94%
    04:00 +24°C° 0 mm 1 m/S 753 mmHg 93%
    05:00 +22°C° 0 mm 0 m/S 753 mmHg 92%
    06:00 +23°C° 0 mm 1 m/S 753 mmHg 93%
    07:00 +23°C° 0 mm 1 m/S 753 mmHg 93%
    08:00 +25°C° 0 mm 1 m/S 753 mmHg 92%
    09:00 +26°C° 0 mm 1 m/S 754 mmHg 88%
    10:00 +25°C° 0 mm 0 m/S 754 mmHg 85%
    11:00 +25°C° 0 mm 0 m/S 754 mmHg 84%
    12:00 +26°C° 0 mm 0 m/S 753 mmHg 83%
    13:00 +29°C° 0 mm 2 m/S 753 mmHg 81%
    14:00 +29°C° 0 mm 2 m/S 753 mmHg 80%

    20 August, Montag

    Zeit Temperatur Niederschläge Wind Luftdruck Luftfeuchtigkeit

    21 August, Dienstag

    Zeit Temperatur Niederschläge Wind Luftdruck Luftfeuchtigkeit
    Mehr zeigen